Onweer radar Meer informatie blitzortung!


Regen radar Meer informatie rain snow radar


Bezoek onze andere website:

Template documentation
and downloads

And another site



15 daagse weersverwachting Hoofddorp (NL)

  • Overzicht
  • Per uur
  • 15 dagen
  • Extra
  • Vergelijk
  • Kaarten
  • Dagkaart
  • Meer »
  • Info
  • Statistieken
  • Directe link
    Temp 6h Neerslag Wind  
 05:58     21:38    Daglengte: 15:40 Vandaag
20:00
18°
 
8
 06:00     21:37    Daglengte: 15:37 Morgen
02:00
16°
0.4 mm
8
08:00
15°
7.6 mm
6
14:00
18°
 
8
20:00
18°
 
7
 06:01     21:35    Daglengte: 15:34 Vrijdag 30 Jul
02:00
16°
 
5
08:00
15°
 
4
14:00
19°
 
5
20:00
17°
9.3 mm
8
 06:03     21:33    Daglengte: 15:30 Zaterdag 31 Jul
02:00
16°
17.5 mm
7
08:00
17°
16.3 mm
5
14:00
18°
18.9 mm
7
Locatie info
Region: Noord-Holland
Latitude: 52.3054°N
Longitude: 4.6930°E
0 masl
Postcode: 2132
Temp/Neerslag /Baro Onweer/Dauwpunt
    Temp Baro 1h Neerslag Dauwpunt Wind UV Bewolking  
 05:58     21:38    Daglengte: 15:40 Vandaag
20:00
18°
1007.9 hPa
48%
11.5°
8
Windvlaag: 11.4 m/s
9%
21:00
18°
1007.8 hPa
21%
11.2°
7
Windvlaag: 11.8 m/s
4%
22:00
17°
1007.6 hPa
25%
10.9°
7
Windvlaag: 11.3 m/s
7%
23:00
17°
1007.6 hPa
23%
11.2°
7
Windvlaag: 11.2 m/s
10%
 06:00     21:37    Daglengte: 15:37 Morgen
00:00
16°
1007.3 hPa
61%
11.1°
7
Windvlaag: 11.6 m/s
13%
01:00
16°
1007.1 hPa 0.4 mm
69%
11.7°
7
Windvlaag: 11 m/s
32%
02:00
16°
1006.8 hPa
76%
11.5°
8
Windvlaag: 10.8 m/s
41%
03:00
15°
1006.6 hPa 0.7 mm
80%
12.2°
7
Windvlaag: 11.1 m/s
38%
04:00
15°
1006.6 hPa 1.4 mm
82%
12.0°
7
Windvlaag: 8.6 m/s
31%
05:00
15°
1006.6 hPa 1.7 mm
82%
11.9°
6
Windvlaag: 8.8 m/s
19%
06:00
15°
1007.0 hPa 1.2 mm
69%
12.3°
6
Windvlaag: 8.7 m/s
36%
07:00
15°
1007.3 hPa 1.7 mm
71%
12.3°
6
Windvlaag: 8.2 m/s
41%
08:00
15°
1007.5 hPa 0.9 mm
72%
12.5°
6
Windvlaag: 7.5 m/s
27%
09:00
16°
1007.9 hPa
58%
11.8°
7
Windvlaag: 7.3 m/s
34%
10:00
17°
1008.4 hPa
14%
12.0°
9
Windvlaag: 7.9 m/s
13%
11:00
17°
1008.9 hPa
16%
11.4°
9
Windvlaag: 7.8 m/s
9%
12:00
18°
1009.4 hPa
18%
11.6°
9
Windvlaag: 7.6 m/s
6%
13:00
18°
1009.8 hPa
19%
11.7°
9
Windvlaag: 7.2 m/s
6%
14:00
18°
1010.2 hPa
19%
11.7°
8
Windvlaag: 7.2 m/s
7%
15:00
19°
1010.2 hPa
18%
11.9°
8
Windvlaag: 8.3 m/s
7%
16:00
19°
1010.2 hPa
18%
11.9°
8
Windvlaag: 8.4 m/s
4%
17:00
19°
1010.2 hPa
18%
11.9°
8
Windvlaag: 8.3 m/s
7%
18:00
19°
1010.2 hPa
14%
12.0°
8
Windvlaag: 7.6 m/s
6%
19:00
18°
1010.2 hPa
16%
11.7°
8
Windvlaag: 7.4 m/s
4%
20:00
18°
1010.0 hPa
14%
11.8°
7
Windvlaag: 7.9 m/s
7%
21:00
18°
1009.8 hPa
14%
12.1°
7
Windvlaag: 8.6 m/s
9%
22:00
17°
1009.8 hPa
14%
11.9°
6
Windvlaag: 8.1 m/s
8%
23:00
16°
1009.8 hPa
14%
11.7°
6
Windvlaag: 7.9 m/s
35%
 06:01     21:35    Daglengte: 15:34 Vrijdag 30 Jul
00:00
16°
1009.7 hPa
14%
11.9°
6
Windvlaag: 7.8 m/s
64%
01:00
16°
1009.6 hPa
14%
12.0°
5
Windvlaag: 7.8 m/s
19%
02:00
16°
1009.3 hPa
14%
11.8°
5
Windvlaag: 7.4 m/s
10%
03:00
15°
1009.0 hPa
14%
11.7°
4
Windvlaag: 6.7 m/s
23%
04:00
15°
1008.8 hPa
14%
11.7°
4
Windvlaag: 6.4 m/s
24%
05:00
15°
1008.5 hPa
14%
11.3°
4
Windvlaag: 6.6 m/s
47%
06:00
15°
1008.3 hPa
15%
11.1°
4
Windvlaag: 6.6 m/s
63%
07:00
15°
1008.3 hPa
22%
11.1°
4
Windvlaag: 6 m/s
72%
08:00
15°
1008.2 hPa
16%
11.5°
4
Windvlaag: 6.3 m/s
86%
09:00
16°
1008.1 hPa
39%
11.3°
4
Windvlaag: 6.2 m/s
86%
10:00
16°
1007.8 hPa
76%
10.1°
3
Windvlaag: 5.6 m/s
86%
11:00
17°
1007.4 hPa
75%
10.8°
4
Windvlaag: 4.3 m/s
86%
12:00
18°
1006.9 hPa
80%
11.5°
5
Windvlaag: 6.3 m/s
84%
13:00
19°
1006.2 hPa
22%
12.3°
5
Windvlaag: 9.2 m/s
79%
14:00
19°
1005.6 hPa
18%
12.7°
5
Windvlaag: 9.4 m/s
66%
15:00
19°
1005.0 hPa
24%
12.0°
5
Windvlaag: 8.2 m/s
75%
16:00
19°
1004.7 hPa
24%
12.8°
3
Windvlaag: 7.8 m/s
15%
17:00
20°
1002.2 hPa
24%
13.9°
5
Windvlaag: 7.9 m/s
30%
18:00
19°
1001.6 hPa 2.5 mm
24%
13.7°
5
Windvlaag: 10.4 m/s
72%
19:00
18°
1001.0 hPa 3.2 mm
74%
12.4°
7
Windvlaag: 11.9 m/s
97%
20:00
17°
1000.1 hPa 3.5 mm
32%
13.5°
8
Windvlaag: 12.2 m/s
95%
21:00
17°
1000.5 hPa 3.8 mm
100%
14.7°
8
Windvlaag: 7.4 m/s
82%
22:00
17°
1001.5 hPa 3.3 mm
83%
14.5°
9
Windvlaag: 2.2 m/s
78%
23:00
16°
1001.7 hPa 2.9 mm
97%
13.9°
8
Windvlaag: 1.2 m/s
48%
 06:03     21:33    Daglengte: 15:30 Zaterdag 31 Jul
00:00
16°
1002.2 hPa 1.9 mm
100%
14.2°
7
Windvlaag: 0.1 m/s
93%
01:00
16°
1002.8 hPa 2.1 mm
100%
13.4°
8
Windvlaag: 0.3 m/s
86%
02:00
16°
1003.2 hPa 3.4 mm
100%
13.9°
7
Windvlaag: 1.6 m/s
79%
03:00
16°
1003.3 hPa 3.2 mm
95%
14.4°
7
Windvlaag: 3.4 m/s
81%
04:00
16°
1003.8 hPa
50%
13.8°
6
Windvlaag: 4 m/s
80%
05:00
16°
1003.9 hPa 3.2 mm
99%
13.6°
6
Windvlaag: 3.2 m/s
78%
06:00
16°
1004.3 hPa 2.2 mm
99%
14.5°
6
Windvlaag: 3 m/s
71%
07:00
16°
1004.9 hPa 3.8 mm
87%
14.6°
5
Windvlaag: 3.1 m/s
59%
08:00
17°
1005.3 hPa 3.9 mm
26%
13.7°
5
Windvlaag: 2.7 m/s
73%
09:00
17°
1005.8 hPa 4.1 mm
78%
14.3°
6
Windvlaag: 2.9 m/s
71%
10:00
17°
1005.9 hPa 2.3 mm
90%
14.3°
5
Windvlaag: 3.3 m/s
72%
11:00
17°
1006.3 hPa 2.4 mm
99%
14.3°
6
Windvlaag: 3.8 m/s
74%
12:00
18°
1006.8 hPa 2.3 mm
100%
14.2°
6
Windvlaag: 4.3 m/s
70%
13:00
18°
1007.1 hPa 3.9 mm
100%
13.8°
7
Windvlaag: 4.5 m/s
71%
14:00
18°
1007.4 hPa 3.8 mm
100%
13.8°
7
Windvlaag: 4.2 m/s
66%
15:00
18°
1007.5 hPa 3.7 mm
100%
14.0°
5
Windvlaag: 9 m/s
76%
16:00
18°
1007.8 hPa 3.8 mm
100%
13.5°
5
Windvlaag: 8.9 m/s
70%
17:00
18°
1007.8 hPa 3.6 mm
100%
13.0°
5
Windvlaag: 8.5 m/s
68%
18:00
18°
1007.8 hPa
100%
12.7°
5
Windvlaag: 8.2 m/s
20%
19:00
18°
1007.7 hPa
37%
13.0°
5
Windvlaag: 7.9 m/s
19%
Temp/Neerslag /Baro Onweer/Dauwpunt
    Temp Baro Neerslag Dauwpunt Wind Bewolking  
 05:58     21:38    Daglengte: 15:40 Vandaag
20:00
18°
1007.9 hPa   11.5°
8
9%
23:00
17°
1007.6 hPa   11.2°
7
10%
 06:00     21:37    Daglengte: 15:37 Morgen
02:00
16°
1006.8 hPa 0.4 mm 11.5°
8
41%
05:00
15°
1006.6 hPa 3.8 mm 11.9°
6
19%
08:00
15°
1007.5 hPa 3.8 mm 12.5°
6
27%
11:00
17°
1008.9 hPa   11.4°
9
9%
14:00
18°
1010.2 hPa   11.7°
8
7%
17:00
19°
1010.2 hPa   11.9°
8
7%
20:00
18°
1010.0 hPa   11.8°
7
7%
23:00
16°
1009.8 hPa   11.7°
6
35%
 06:01     21:35    Daglengte: 15:34 Vrijdag 30 Jul
02:00
16°
1009.3 hPa   11.8°
5
10%
05:00
15°
1008.5 hPa   11.3°
4
47%
08:00
15°
1008.2 hPa   11.5°
4
86%
11:00
17°
1007.4 hPa   10.8°
4
86%
14:00
19°
1005.6 hPa   12.7°
5
66%
17:00
20°
1002.2 hPa   13.9°
5
30%
20:00
17°
1000.1 hPa 9.3 mm 13.5°
8
95%
23:00
16°
1001.7 hPa 10.0 mm 13.9°
8
48%
 06:03     21:33    Daglengte: 15:30 Zaterdag 31 Jul
02:00
16°
1003.2 hPa 7.4 mm 13.9°
7
79%
05:00
16°
1003.9 hPa 6.4 mm 13.6°
6
78%
08:00
17°
1005.3 hPa 9.8 mm 13.7°
5
73%
11:00
17°
1006.3 hPa 8.8 mm 14.3°
6
74%
14:00
18°
1007.4 hPa 10.1 mm 13.8°
7
66%
17:00
18°
1007.8 hPa 11.1 mm 13.0°
5
68%
20:00
18°
1007.8 hPa   13.4°
4
17%
23:00
16°
1008.6 hPa 11.8 mm 13.1°
3
1%
 06:04     21:32    Daglengte: 15:28 Zondag 01 Aug
02:00
15°
1008.1 hPa 12.5 mm 13.5°
3
0%
05:00
14°
1007.3 hPa 13.1 mm 13.2°
4
0%
08:00
15°
1007.0 hPa 13.5 mm 13.4°
4
1%
11:00
18°
1006.9 hPa 14.1 mm 13.8°
4
1%
14:00
19°
1007.1 hPa 17.1 mm 13.9°
4
1%
17:00
18°
1008.9 hPa 17.7 mm 11.0°
6
1%
20:00
17°
1010.2 hPa 17.7 mm 9.9°
4
1%
23:00
15°
1011.6 hPa 17.7 mm 10.3°
4
0%
 06:06     21:30    Daglengte: 15:24 Maandag 02 Aug
02:00
14°
1012.2 hPa 17.8 mm 10.0°
4
0%
05:00
13°
1012.3 hPa 17.8 mm 9.9°
3
0%
08:00
15°
1013.3 hPa 18.2 mm 10.8°
4
0%
11:00
17°
1014.2 hPa 18.3 mm 7.2°
5
0%
14:00
18°
1015.1 hPa 18.3 mm 6.3°
5
0%
17:00
18°
1015.2 hPa 18.3 mm 6.2°
5
0%
20:00
17°
1015.4 hPa 18.3 mm 7.9°
3
0%
23:00
14°
1016.1 hPa 18.3 mm 8.8°
1
0%
 06:08     21:28    Daglengte: 15:20 Dinsdag 03 Aug
02:00
13°
1016.3 hPa 18.3 mm 9.1°
1
0%
05:00
12°
1015.9 hPa 18.3 mm 9.0°
1
1%
08:00
13°
1016.5 hPa 18.3 mm 8.5°
2
1%
11:00
17°
1016.5 hPa 18.3 mm 7.6°
2
1%
14:00
20°
1015.9 hPa 18.3 mm 6.5°
3
1%
17:00
20°
1015.5 hPa 18.3 mm 6.5°
4
1%
20:00
19°
1015.2 hPa 18.3 mm 7.3°
2
1%
23:00
16°
1016.1 hPa 18.3 mm 7.5°
1
0%
 06:09     21:26    Daglengte: 15:17 Woensdag 04 Aug
02:00
15°
1016.2 hPa 18.3 mm 8.7°
2
0%
05:00
14°
1015.0 hPa 18.3 mm 9.5°
2
1%
08:00
16°
1015.4 hPa 18.3 mm 12.1°
3
1%
11:00
20°
1015.5 hPa 18.3 mm 10.9°
4
1%
14:00
21°
1015.1 hPa 18.3 mm 10.1°
6
1%
17:00
21°
1014.7 hPa   10.3°
4
1%
20:00
20°
1013.9 hPa 36.6 mm 12.9°
3
1%
 06:11     21:24    Daglengte: 15:13 Donderdag 05 Aug
02:00
16°
1012.8 hPa 36.8 mm 13.0°
3
1%
08:00
16°
1009.8 hPa 36.8 mm 13.0°
2
1%
14:00
17°
1008.4 hPa 38.0 mm 14.8°
4
1%
20:00
16°
1007.3 hPa 40.0 mm 14.2°
5
1%
 06:12     21:23    Daglengte: 15:11 Vrijdag 06 Aug
02:00
14°
1006.8 hPa 40.9 mm 13.5°
6
1%
08:00
15°
1007.5 hPa 41.8 mm 13.0°
5
0%
14:00
19°
1009.1 hPa 46.2 mm 10.2°
8
0%
20:00
18°
1009.7 hPa 47.6 mm 10.3°
6
0%
 06:14     21:21    Daglengte: 15:07 Zaterdag 07 Aug
02:00
15°
1010.1 hPa 48.0 mm 11.5°
5
1%
08:00
16°
1007.8 hPa 0.3 mm 13.2°
4
62%
14:00
19°
1009.8 hPa 1.7 mm 12.7°
5
55%
20:00
18°
1010.8 hPa 0.6 mm 12.7°
4
58%
 06:16     21:19    Daglengte: 15:03 Zondag 08 Aug
02:00
16°
1011.9 hPa 0.5 mm 12.4°
3
51%
08:00
16°
1012.3 hPa 0.6 mm 12.9°
3
57%
14:00
20°
1013.6 hPa 0.7 mm 12.5°
5
54%
20:00
18°
1013.5 hPa 0.5 mm 13.1°
4
56%
 06:17     21:17    Daglengte: 15:00 Maandag 09 Aug
02:00
16°
1013.9 hPa 0.7 mm 13.0°
4
58%
08:00
16°
1014.2 hPa 0.9 mm 12.9°
4
55%
14:00
20°
1015.2 hPa 0.4 mm 12.3°
6
46%
20:00
19°
1014.6 hPa 0.6 mm 13.2°
4
52%
 06:19     21:15    Daglengte: 14:56 Dinsdag 10 Aug
02:00
16°
1014.9 hPa 0.6 mm 12.6°
3
59%
08:00
16°
1015.1 hPa 0.8 mm 13.0°
4
47%
14:00
20°
1016.4 hPa 0.8 mm 12.7°
6
55%
20:00
18°
1016.4 hPa 0.5 mm 12.5°
4
53%
 06:20     21:13    Daglengte: 14:53 Woensdag 11 Aug
02:00
16°
1017.0 hPa 0.4 mm 12.3°
3
56%
08:00
16°
1017.4 hPa 0.5 mm 12.8°
3
56%
14:00
19°
1018.3 hPa 0.8 mm 12.0°
5
55%
20:00
18°
1018.2 hPa 0.4 mm 11.8°
4
46%
 06:22     21:11    Daglengte: 14:49 Donderdag 12 Aug
02:00
15°
1018.3 hPa 0.2 mm 12.0°
2
55%
08:00
16°
1017.7 hPa 0.4 mm 12.5°
3
59%
14:00
20°
1018.1 hPa 0.5 mm 11.7°
4
56%
  CAPE Lifted Index Hail Supercell Tornado SRH 3km CL BTM PRES CL TOP PRES Swiss DWD icon SMHI TS
 05:58     21:38    Daglengte: 15:40 Vandaag
20:00 101 J/kg 2.7 K 0 % 0 % 0 % 0 m²/s² 0 0 7.08 1
21:00 130 J/kg 2.9 K 0 % 0 % 0 % 0 m²/s² 0 0 8 2
22:00 105 J/kg 3.3 K 0 % 0 % 0 % 0 m²/s² 0 0 8.01 2
23:00 137 J/kg 3.2 K 0 % 0 % 0 % 0 m²/s² 0 0 7.13 2
 06:00     21:37    Daglengte: 15:37 Morgen
00:00 236 J/kg 2.5 K 0 % 0 % 0 % 0 m²/s² 0 0 6.13 2
01:00 394 J/kg 1.5 K 0 % 0 % 0 % 0 m²/s² 0 0 4.2 80
02:00 450 J/kg 1.8 K 0 % 0 % 0 % 0 m²/s² 0 0 5.13 80
03:00 402 J/kg 3.0 K 0 % 0 % 0 % 0 m²/s² 0 0 6.99 80
04:00 213 J/kg 5.7 K 0 % 0 % 0 % 0 m²/s² 0 0 9.48 80
05:00 210 J/kg 6.6 K 0 % 0 % 0 % 0 m²/s² 0 0 10.17 2
06:00 226 J/kg 6.7 K 0 % 0 % 0 % 0 m²/s² 0 0 11.56 2
07:00 231 J/kg 6.6 K 0 % 0 % 0 % 0 m²/s² 0 0 12.03 80
08:00 210 J/kg 6.8 K 0 % 0 % 0 % 0 m²/s² 0 0 12.56 80
09:00 208 J/kg 6.6 K 0 % 0 % 0 % 0 m²/s² 0 0 12.72 2
10:00 164 J/kg 6.4 K 0 % 0 % 0 % 0 m²/s² 0 0 12.73 2
11:00 123 J/kg 6.6 K 0 % 0 % 0 % 0 m²/s² 0 0 12.96 2
12:00 79 J/kg 7.2 K 0 % 0 % 0 % 0 m²/s² 0 0 13.56 2
13:00 47 J/kg 7.5 K 0 % 0 % 0 % 0 m²/s² 0 0 14.07 2
14:00 21 J/kg 7.5 K 0 % 0 % 0 % 0 m²/s² 0 0 13.5 1
15:00 39 J/kg 6.5 K 0 % 0 % 0 % 0 m²/s² 0 0 12.89 1
16:00 84 J/kg 5.7 K 0 % 0 % 0 % 0 m²/s² 0 0 11.91 1
17:00 97 J/kg 5.2 K 0 % 0 % 0 % 0 m²/s² 0 0 10.9 1
18:00 81 J/kg 5.2 K 0 % 0 % 0 % 0 m²/s² 0 0 11.08 1
19:00 74 J/kg 5.5 K 0 % 0 % 0 % 0 m²/s² 0 0 11.92 1
20:00 70 J/kg 5.1 K 0 % 0 % 0 % 0 m²/s² 0 0 11.55 0
21:00 73 J/kg 5.0 K 0 % 0 % 0 % 0 m²/s² 0 0 11.09 1
22:00 48 J/kg 5.0 K 0 % 0 % 0 % 0 m²/s² 0 0 10.94 1
23:00 40 J/kg 4.6 K 0 % 0 % 0 % 0 m²/s² 0 0 10.72 3
 06:01     21:35    Daglengte: 15:34 Vrijdag 30 Jul
00:00 41 J/kg 4.2 K 0 % 0 % 0 % 0 m²/s² 0 0 8.55 3
01:00 70 J/kg 3.5 K 0 % 0 % 0 % 0 m²/s² 0 0 6.62 3
02:00 60 J/kg 3.1 K 0 % 0 % 0 % 0 m²/s² 0 0 5.95 2
03:00 43 J/kg 2.9 K 0 % 0 % 0 % 0 m²/s² 0 0 4.58 3
04:00 30 J/kg 2.9 K 0 % 0 % 0 % 0 m²/s² 0 0 4.31 3
05:00 9 J/kg 3.3 K 0 % 0 % 0 % 0 m²/s² 0 0 4.65 3
06:00 0 J/kg 3.8 K 0 % 0 % 0 % 0 m²/s² 0 0 4.88 3
07:00 0 J/kg 4.3 K 0 % 0 % 0 % 0 m²/s² 0 0 5.05 3
08:00 0 J/kg 4.2 K 0 % 0 % 0 % 0 m²/s² 0 0 4.53 3
09:00 0 J/kg 3.6 K 0 % 0 % 0 % 0 m²/s² 0 0 3.93 3
10:00 0 J/kg 3.8 K 0 % 0 % 0 % 0 m²/s² 0 0 3.98 80
11:00 0 J/kg 3.0 K 0 % 0 % 0 % 0 m²/s² 0 0 3.03 3
12:00 0 J/kg 2.7 K 0 % 0 % 0 % 0 m²/s² 0 0 2.97 3
13:00 0 J/kg 1.3 K 0 % 0 % 0 % 0 m²/s² 0 0 1.69 3
14:00 2 J/kg 0.9 K 0 % 0 % 0 % 0 m²/s² 0 0 3.9 3
15:00 91 J/kg 0.0 K 0 % 0 % 0 % 0 m²/s² 0 0 7.11 3
16:00 346 J/kg -0.9 K 0 % 0 % 0 % 0 m²/s² 0 0 0.99 1
17:00 254 J/kg 0.2 K 0 % 0 % 0 % 0 m²/s² 0 0 0.71 3
18:00 209 J/kg 0.1 K 0 % 0 % 0 % 0 m²/s² 0 0 1.87 3
19:00 237 J/kg -1.7 K 0 % 0 % 0 % 0 m²/s² 0 0 -1.67 3
20:00 451 J/kg -2.7 K 0 % 0 % 0 % 0 m²/s² 0 0 -1.35 3
21:00 614 J/kg -2.5 K 0 % 0 % 0 % 0 m²/s² 0 0 -1.87 3
22:00 506 J/kg -1.9 K 0 % 0 % 0 % 0 m²/s² 0 0 -0.07 3
23:00 416 J/kg -1.4 K 0 % 0 % 0 % 0 m²/s² 0 0 0.7 3
 06:03     21:33    Daglengte: 15:30 Zaterdag 31 Jul
00:00 405 J/kg -1.3 K 0 % 0 % 0 % 0 m²/s² 0 0 -0.43 80
01:00 204 J/kg -0.5 K 0 % 0 % 0 % 0 m²/s² 0 0 1.39 80
02:00 301 J/kg -1.0 K 0 % 0 % 0 % 0 m²/s² 0 0 2.06 80
03:00 333 J/kg -1.1 K 0 % 0 % 0 % 0 m²/s² 0 0 1.57 2
04:00 103 J/kg -0.1 K 0 % 0 % 0 % 0 m²/s² 0 0 1.22 3
05:00 76 J/kg 0.6 K 0 % 0 % 0 % 0 m²/s² 0 0 1.62 80
06:00 376 J/kg -0.9 K 0 % 0 % 0 % 0 m²/s² 0 0 -0.81 80
07:00 370 J/kg -0.8 K 0 % 0 % 0 % 0 m²/s² 0 0 -0.62 2
08:00 205 J/kg 0.0 K 0 % 0 % 0 % 0 m²/s² 0 0 0.33 3
09:00 273 J/kg -0.5 K 0 % 0 % 0 % 0 m²/s² 0 0 0.07 3
10:00 230 J/kg -0.4 K 0 % 0 % 0 % 0 m²/s² 0 0 0.29 80
11:00 209 J/kg -0.6 K 0 % 0 % 0 % 0 m²/s² 0 0 0.18 80
12:00 158 J/kg -0.4 K 0 % 0 % 0 % 0 m²/s² 0 0 0.47 80
13:00 178 J/kg -0.5 K 0 % 0 % 0 % 0 m²/s² 0 0 0.43 80
14:00 181 J/kg -0.6 K 0 % 0 % 0 % 0 m²/s² 0 0 0.51 80
15:00 186 J/kg -0.7 K 0 % 0 % 0 % 0 m²/s² 0 0 0.62 80
16:00 201 J/kg -0.8 K 0 % 0 % 0 % 0 m²/s² 0 0 0.58 3
17:00 177 J/kg -0.7 K 0 % 0 % 0 % 0 m²/s² 0 0 0.38 3
18:00 201 J/kg -0.7 K 0 % 0 % 0 % 0 m²/s² 0 0 0.05 2
19:00 232 J/kg -0.7 K 0 % 0 % 0 % 0 m²/s² 0 0 0.17 2
Temp Baro Wind Neerslag
  EWN Forecast EWN WRFDA DWD ICON FMI HIRLAM MET Norway GFS
 05:58     21:38    Daglengte: 15:40 Vandaag
20:00 18.3° 1007.9 hPa 7.9 m/s 0.0 mm 18.9° 1007.2 hPa 10.1 m/s 0.4 mm 18.6° 1008.0 hPa 6.7 m/s -1.2 mm 18.4° 1008.1 hPa 7.5 m/s 0.0 mm 18.5° 1007.3 hPa 8.6 m/s
23:00 16.8° 1007.6 hPa 6.5 m/s 0.0 mm 16.9° 1006.4 hPa 8.5 m/s 1.3 mm 16.9° 1007.6 hPa 5.3 m/s 0.0 mm 17.3° 1007.7 hPa 6.1 m/s 0.0 mm 16.7° 1007.5 hPa 8.6 m/s
 06:00     21:37    Daglengte: 15:37 Morgen
02:00 15.6° 1006.8 hPa 7.6 m/s 0.4 mm 16.7° 1005.7 hPa 8.9 m/s 2.9 mm 15.5° 1007.3 hPa 6.5 m/s 0.9 mm 16.2° 1006.3 hPa 7.7 m/s 0.0 mm 15.1° 1007.4 hPa 8.3 m/s
05:00 14.7° 1006.6 hPa 6.1 m/s 3.8 mm 15.9° 1006.1 hPa 7.5 m/s 5.1 mm 15.1° 1007.4 hPa 5.9 m/s 1.7 mm 14.4° 1006.5 hPa 5.9 m/s 0.0 mm 14.3° 1007.6 hPa 7.0 m/s
08:00 15.2° 1007.5 hPa 6.2 m/s 3.8 mm 16.3° 1007.1 hPa 9.0 m/s 5.2 mm 15.3° 1008.0 hPa 5.7 m/s 0.8 mm 14.7° 1007.5 hPa 5.8 m/s 0.0 mm 15.8° 1008.2 hPa 7.8 m/s
11:00 17.0° 1008.9 hPa 8.9 m/s 0.0 mm 17.6° 1008.3 hPa 9.4 m/s 5.2 mm 17.5° 1009.5 hPa 7.4 m/s 0.0 mm 16.9° 1008.9 hPa 9.0 m/s 0.0 mm 17.9° 1009.3 hPa 8.7 m/s
14:00 18.4° 1010.2 hPa 8.4 m/s 0.0 mm 18.4° 1009.0 hPa 9.6 m/s 5.2 mm 18.6° 1010.4 hPa 7.2 m/s 0.0 mm 18.7° 1010.5 hPa 8.3 m/s 0.0 mm 18.8° 1010.1 hPa 8.5 m/s
17:00 18.7° 1010.2 hPa 8.3 m/s 0.0 mm 18.8° 1008.8 hPa 8.6 m/s 5.2 mm 19.2° 1010.4 hPa 6.4 m/s 0.0 mm 18.7° 1010.8 hPa 8.4 m/s 0.0 mm 19.0° 1010.3 hPa 7.9 m/s
20:00 18.0° 1010.0 hPa 7.3 m/s 0.0 mm 18.4° 1008.5 hPa 7.8 m/s 5.2 mm 18.5° 1010.1 hPa 5.2 m/s 0.0 mm 18.0° 1011.0 hPa 7.4 m/s 0.0 mm 17.9° 1009.9 hPa 6.5 m/s
23:00 16.5° 1009.8 hPa 5.8 m/s 0.0 mm 17.0° 1008.1 hPa 5.9 m/s 5.2 mm 16.4° 1009.9 hPa 3.7 m/s 0.0 mm 17.6° 1011.2 hPa 6.1 m/s 0.0 mm 16.3° 1009.7 hPa 5.2 m/s
 06:01     21:35    Daglengte: 15:34 Vrijdag 30 Jul
02:00 15.7° 1009.3 hPa 4.7 m/s 0.0 mm 16.1° 1007.6 hPa 4.7 m/s 5.2 mm 15.5° 1009.3 hPa 2.6 m/s 0.0 mm 17.5° 1010.8 hPa 5.8 m/s 0.0 mm 15.2° 1008.8 hPa 4.2 m/s
05:00 15.1° 1008.5 hPa 4.5 m/s 0.0 mm 15.3° 1006.5 hPa 3.4 m/s 5.2 mm 14.9° 1008.5 hPa 2.8 m/s 0.0 mm 17.3° 1010.3 hPa 5.3 m/s 0.0 mm 13.9° 1008.1 hPa 3.5 m/s
08:00 15.4° 1008.2 hPa 3.8 m/s 0.0 mm 15.4° 1006.2 hPa 3.6 m/s 5.2 mm 15.4° 1008.3 hPa 2.7 m/s 0.0 mm 17.2° 1010.4 hPa 4.0 m/s 0.0 mm 14.8° 1007.1 hPa 3.1 m/s
11:00 17.0° 1007.4 hPa 4.0 m/s 0.0 mm 15.1° 1005.1 hPa 1.5 m/s 6.6 mm 17.4° 1007.5 hPa 3.2 m/s 0.1 mm 18.9° 1010.7 hPa 5.6 m/s 0.0 mm 16.8° 1005.9 hPa 4.7 m/s
14:00 19.0° 1005.6 hPa 5.1 m/s 0.0 mm 18.6° 1003.5 hPa 5.1 m/s 10.9 mm 21.1° 1005.4 hPa 5.3 m/s 0.1 mm 18.9° 1010.7 hPa 4.3 m/s 0.0 mm 16.1° 1005.1 hPa 5.5 m/s
17:00 19.8° 1002.2 hPa 4.8 m/s 0.0 mm 18.8° 1002.2 hPa 4.2 m/s 12.2 mm 22.2° 1003.5 hPa 5.8 m/s 0.0 mm 18.8° 1002.9 hPa 8.3 m/s
20:00 17.4° 1000.1 hPa 8.2 m/s 9.3 mm 17.0° 999.6 hPa 8.6 m/s 18.6 mm 19.2° 1002.3 hPa 6.5 m/s 0.0 mm 15.7° 1001.5 hPa 10.3 m/s
23:00 16.3° 1001.7 hPa 8.4 m/s 10.0 mm 16.3° 1001.5 hPa 8.9 m/s 24.7 mm 16.6° 1001.0 hPa 6.7 m/s 0.2 mm 15.1° 1003.0 hPa 9.2 m/s
 06:03     21:33    Daglengte: 15:30 Zaterdag 31 Jul
02:00 15.9° 1003.2 hPa 7.4 m/s 7.4 mm 16.0° 1003.1 hPa 6.8 m/s 26.6 mm 16.4° 1001.1 hPa 8.5 m/s 1.4 mm 15.3° 1004.8 hPa 7.8 m/s
05:00 15.7° 1003.9 hPa 6.0 m/s 6.4 mm 15.7° 1003.7 hPa 5.8 m/s 27.8 mm 16.1° 1003.3 hPa 6.8 m/s 0.4 mm 15.3° 1005.6 hPa 5.8 m/s
08:00 16.6° 1005.3 hPa 5.0 m/s 9.8 mm 17.0° 1004.6 hPa 7.1 m/s 30.3 mm 16.8° 1005.1 hPa 4.0 m/s 0.5 mm 15.6° 1006.3 hPa 6.5 m/s
11:00 17.4° 1006.3 hPa 5.6 m/s 8.8 mm 17.7° 1005.9 hPa 7.2 m/s 31.4 mm 17.5° 1006.1 hPa 5.0 m/s 0.6 mm 17.1° 1007.7 hPa 6.6 m/s
14:00 18.0° 1007.4 hPa 6.7 m/s 10.1 mm 18.6° 1007.4 hPa 7.3 m/s 31.7 mm 17.7° 1007.4 hPa 4.8 m/s 1.4 mm 19.2° 1008.5 hPa 7.0 m/s
17:00 18.1° 1007.8 hPa 5.2 m/s 11.1 mm 19.1° 1007.7 hPa 6.7 m/s 31.8 mm 17.8° 1007.8 hPa 4.8 m/s 0.8 mm 19.3° 1008.6 hPa 5.6 m/s
20:00 17.8° 1007.8 hPa 4.1 m/s 0.0 mm 18.7° 1007.2 hPa 5.6 m/s 31.8 mm 17.6° 1007.9 hPa 3.7 m/s 0.1 mm 18.2° 1008.5 hPa 4.2 m/s
23:00 15.8° 1008.6 hPa 3.3 m/s 11.8 mm 15.8° 1008.6 hPa 3.3 m/s 11.8 mm
 06:04     21:32    Daglengte: 15:28 Zondag 01 Aug
02:00 14.6° 1008.1 hPa 3.1 m/s 12.5 mm 14.6° 1008.1 hPa 3.1 m/s 12.5 mm
05:00 13.9° 1007.3 hPa 3.6 m/s 13.1 mm 13.9° 1007.3 hPa 3.6 m/s 13.1 mm
08:00 14.7° 1007.0 hPa 3.9 m/s 13.5 mm 14.7° 1007.0 hPa 3.9 m/s 13.5 mm
11:00 17.9° 1006.9 hPa 4.4 m/s 14.1 mm 17.9° 1006.9 hPa 4.4 m/s 14.1 mm
14:00 18.8° 1007.1 hPa 4.4 m/s 17.1 mm 18.8° 1007.1 hPa 4.4 m/s 17.1 mm
17:00 18.1° 1008.9 hPa 5.7 m/s 17.7 mm 18.1° 1008.9 hPa 5.7 m/s 17.7 mm
20:00 16.6° 1010.2 hPa 4.3 m/s 17.7 mm 16.6° 1010.2 hPa 4.3 m/s 17.7 mm
23:00 14.6° 1011.6 hPa 3.6 m/s 17.7 mm 14.6° 1011.6 hPa 3.6 m/s 17.7 mm
 06:06     21:30    Daglengte: 15:24 Maandag 02 Aug
02:00 13.9° 1012.2 hPa 3.6 m/s 17.8 mm 13.9° 1012.2 hPa 3.6 m/s 17.8 mm
05:00 13.4° 1012.3 hPa 3.5 m/s 17.8 mm 13.4° 1012.3 hPa 3.5 m/s 17.8 mm
08:00 14.6° 1013.3 hPa 3.6 m/s 18.2 mm 14.6° 1013.3 hPa 3.6 m/s 18.2 mm
11:00 17.4° 1014.2 hPa 4.8 m/s 18.3 mm 17.4° 1014.2 hPa 4.7 m/s 18.3 mm
14:00 18.2° 1015.1 hPa 4.7 m/s 18.3 mm 18.2° 1015.1 hPa 4.7 m/s 18.3 mm
17:00 18.1° 1015.2 hPa 4.9 m/s 18.3 mm 18.1° 1015.2 hPa 4.9 m/s 18.3 mm
20:00 16.6° 1015.4 hPa 3.5 m/s 18.3 mm 16.6° 1015.4 hPa 3.5 m/s 18.3 mm
23:00 13.9° 1016.1 hPa 1.4 m/s 18.3 mm 13.9° 1016.1 hPa 1.4 m/s 18.3 mm
 06:08     21:28    Daglengte: 15:20 Dinsdag 03 Aug
02:00 12.9° 1016.3 hPa 0.6 m/s 18.3 mm 12.9° 1016.3 hPa 0.6 m/s 18.3 mm
05:00 12.1° 1015.9 hPa 1.4 m/s 18.3 mm 12.1° 1015.9 hPa 1.4 m/s 18.3 mm
08:00 13.4° 1016.5 hPa 2.0 m/s 18.3 mm 13.4° 1016.5 hPa 2.0 m/s 18.3 mm
11:00 16.6° 1016.5 hPa 2.1 m/s 18.3 mm 16.6° 1016.5 hPa 2.1 m/s 18.3 mm
14:00 20.2° 1015.9 hPa 2.5 m/s 18.3 mm 20.2° 1015.9 hPa 2.5 m/s 18.3 mm
17:00 20.3° 1015.5 hPa 3.9 m/s 18.3 mm 20.3° 1015.5 hPa 3.9 m/s 18.3 mm
20:00 18.9° 1015.2 hPa 1.6 m/s 18.3 mm 18.9° 1015.2 hPa 1.6 m/s 18.3 mm
23:00 15.7° 1016.1 hPa 1.1 m/s 18.3 mm 15.7° 1016.1 hPa 1.1 m/s 18.3 mm
 06:09     21:26    Daglengte: 15:17 Woensdag 04 Aug
02:00 14.7° 1016.2 hPa 2.0 m/s 18.3 mm 14.7° 1016.2 hPa 2.0 m/s 18.3 mm
05:00 14.2° 1015.0 hPa 2.4 m/s 18.3 mm 14.2° 1015.0 hPa 2.4 m/s 18.3 mm
08:00 15.9° 1015.4 hPa 3.2 m/s 18.3 mm 15.9° 1015.4 hPa 3.2 m/s 18.3 mm
11:00 19.5° 1015.5 hPa 4.4 m/s 18.3 mm 19.5° 1015.5 hPa 4.4 m/s 18.3 mm
14:00 21.2° 1015.1 hPa 5.6 m/s 18.3 mm 21.2° 1015.1 hPa 5.6 m/s 18.3 mm
17:00 21.1° 1014.7 hPa 4.4 m/s 18.3 mm 21.1° 1014.7 hPa 4.4 m/s 18.3 mm
20:00 19.8° 1013.9 hPa 3.0 m/s 18.4 mm 19.8° 1013.9 hPa 3.0 m/s 18.4 mm
 06:11     21:24    Daglengte: 15:13 Donderdag 05 Aug
02:00 15.9° 1012.8 hPa 2.6 m/s 18.4 mm 15.9° 1012.8 hPa 2.6 m/s 18.4 mm
08:00 16.4° 1009.8 hPa 2.1 m/s 18.4 mm 16.4° 1009.8 hPa 2.1 m/s 18.4 mm
14:00 17.0° 1008.4 hPa 4.1 m/s 19.3 mm 17.0° 1008.4 hPa 4.1 m/s 19.3 mm
20:00 16.2° 1007.3 hPa 5.1 m/s 20.3 mm 16.2° 1007.3 hPa 5.1 m/s 20.3 mm
 06:12     21:23    Daglengte: 15:11 Vrijdag 06 Aug
02:00 14.5° 1006.8 hPa 5.6 m/s 20.5 mm 14.5° 1006.8 hPa 5.6 m/s 20.5 mm
08:00 15.2° 1007.5 hPa 4.7 m/s 21.2 mm 15.2° 1007.5 hPa 4.7 m/s 21.2 mm
14:00 18.5° 1009.1 hPa 7.8 m/s 23.6 mm 18.5° 1009.1 hPa 7.8 m/s 23.6 mm
20:00 17.9° 1009.7 hPa 5.8 m/s 23.9 mm 17.9° 1009.7 hPa 5.8 m/s 23.9 mm
 06:14     21:21    Daglengte: 15:07 Zaterdag 07 Aug
02:00 15.5° 1010.1 hPa 5.1 m/s 24.0 mm 15.5° 1010.1 hPa 5.1 m/s 24.0 mm
08:00 15.9° 1007.8 hPa 3.7 m/s 0.3 mm
14:00 19.3° 1009.8 hPa 5.5 m/s 1.7 mm
20:00 18.2° 1010.8 hPa 3.6 m/s 0.6 mm
 06:16     21:19    Daglengte: 15:03 Zondag 08 Aug
02:00 15.6° 1011.9 hPa 2.8 m/s 0.5 mm
08:00 15.8° 1012.3 hPa 3.0 m/s 0.6 mm
14:00 20.2° 1013.6 hPa 5.1 m/s 0.7 mm
20:00 18.4° 1013.5 hPa 3.7 m/s 0.5 mm
 06:17     21:17    Daglengte: 15:00 Maandag 09 Aug
02:00 16.0° 1013.9 hPa 3.9 m/s 0.7 mm
08:00 16.1° 1014.2 hPa 3.8 m/s 0.9 mm
14:00 20.4° 1015.2 hPa 5.5 m/s 0.4 mm
20:00 18.7° 1014.6 hPa 4.2 m/s 0.6 mm
 06:19     21:15    Daglengte: 14:56 Dinsdag 10 Aug
02:00 16.2° 1014.9 hPa 3.5 m/s 0.6 mm
08:00 16.3° 1015.1 hPa 3.9 m/s 0.8 mm
14:00 19.6° 1016.4 hPa 5.6 m/s 0.8 mm
20:00 18.0° 1016.4 hPa 3.9 m/s 0.5 mm
 06:20     21:13    Daglengte: 14:53 Woensdag 11 Aug
02:00 15.6° 1017.0 hPa 3.1 m/s 0.4 mm
08:00 15.9° 1017.4 hPa 3.3 m/s 0.5 mm
14:00 19.4° 1018.3 hPa 5.2 m/s 0.8 mm
20:00 17.5° 1018.2 hPa 3.7 m/s 0.4 mm
 06:22     21:11    Daglengte: 14:49 Donderdag 12 Aug
02:00 15.2° 1018.3 hPa 2.5 m/s 0.2 mm
08:00 15.7° 1017.7 hPa 2.7 m/s 0.4 mm
14:00 19.9° 1018.1 hPa 4.4 m/s 0.5 mm
FMI Hirlam - 7.5 km EWN WRFDA - 12 km DWD ICON - 7 km GFS - 25 km Basiskaart






























































Updatetijd (Europe/Amsterdam) Resolutie Lengte Stap
FMI Hirlam 19:00, 01:00, 07:00, 13:00 7.5 km 49h 1h
EWN WRFDA 16:30, 22:30, 04:30, 10:30 12 km 73h 1h
DWD ICON 18:00, 00:00, 06:00, 12:00 7 km 75h 1h
GFS 14:15, 20:15, 02:15, 08:15 25 km 237h 3h
30+ mm
25-30 mm
20-25 mm
15-20 mm
10-15 mm
6-10 mm
4-6 mm
2-4 mm
1-2 mm
0.5-1 mm
0.2-0.5 mm
0.1-0.2 mm
30+ mm
25-30 mm
20-25 mm
15-20 mm
10-15 mm
6-10 mm
4-6 mm
2-4 mm
1-2 mm
0.5-1 mm
0.2-0.5 mm
0.1-0.2 mm
Sneeuwval
Natte sneeuw
Hagel
Vorst
30+ mm
25-30 mm
20-25 mm
15-20 mm
10-15 mm
6-10 mm
4-6 mm
2-4 mm
1-2 mm
0.5-1 mm
0.2-0.5 mm
0.1-0.2 mm
Sneeuwval
Natte sneeuw
Hagel
Vorst
Onweer
50 mm
40 mm
30 mm
26 mm
22 mm
18 mm
14 mm
10 mm
9 mm
8 mm
7 mm
6 mm
5 mm
4.5 mm
4 mm
3.5 mm
3 mm
2.5 mm
2 mm
1.5 mm
1 mm
0.8 mm
0.6 mm
0.4 mm
0.2 mm
0.05 mm
35°
30°
25°
20°
15°
10°